Tracking 26492 objects as of 8-Dec-2022
HD Live streaming from Space Station
objects crossing your sky now

STARLINK-5012

Track STARLINK-5012 now!
10-day predictions
STARLINK-5012 is classified as:


NORAD ID: 53918
Int'l Code: 2022-119AJ
Perigee: 430.2 km
Apogee: 431.8 km
Inclination: 53.2 °
Period: 93.0 minutes
Semi major axis: 6802 km
RCS: Unknown
Launch date: September 24, 2022
Source: United States (US)
Launch site: AIR FORCE EASTERN TEST RANGE (AFETR)
aabbcc
Your satellite tracking list
Your tracking list is empty




NASA's NSSDC Master Catalog

Two Line Element Set (TLE):
1 53918U 22119AJ  22342.00001157 -.01146024  00000-0 -23950-1 0  9998
2 53918  53.2173 247.9218 0001112  86.2242 310.8982 15.47559898  1307
Source of the keplerian elements: AFSPC